Regional Weather Roundup
Issued by NWS Mt. Holly, NJ

Current Version | Previous Version | Text Only | Print | Product List | Glossary On
Versions: 1 2 3 4 5 6 7 8 9 10 11 12 13 14 15 16 17 18 19 20 21 22 23 24 25 26 27
000
ASUS41 KPHI 221512
RWRPHI

REGIONAL WEATHER ROUNDUP
NATIONAL WEATHER SERVICE MOUNT HOLLY NJ
1100 AM EDT FRI SEP 22 2017

NOTE:  "FAIR" INDICATES FEW OR NO CLOUDS BELOW 12,000 FEET WITH NO
SIGNIFICANT WEATHER AND/OR OBSTRUCTIONS TO VISIBILITY.

 * = STATION DOES NOT REPORT PRECIPITATION (E.G. RAIN, SNOW, ETC.)
        OR FOG.

NJZ015>026-221600-
SOUTHERN NEW JERSEY

CITY           SKY/WX    TMP DP  RH WIND       PRES   REMARKS
POMONA         CLOUDY    72  56  57 NW8       30.02R
WILDWOOD*      CLOUDY    72  55  55 NW8       30.04R
MILLVILLE      CLOUDY    74  58  57 NW7       30.03F
WRIGHTSTOWN    CLOUDY    71  52  50 N15       30.00S
MOUNT HOLLY    CLOUDY    74  52  46 N10G20    30.03S
TRENTON        CLOUDY    75  52  44 N14       30.02F

$$
NJZ001>014-221600-
NORTHERN NEW JERSEY

CITY           SKY/WX    TMP DP  RH WIND       PRES   REMARKS
SUSSEX         SUNNY     74  58  57 E7        30.06F
ANDOVER*         N/A     72  56  57 N8        30.07F
MORRISTOWN     MOSUNNY   75  50  41 N12G26    30.03F
NEWARK         PTSUNNY   77  48  35 N16G24    30.01F
TETERBORO      MOSUNNY   76  50  40 N13G26    30.00F
CALDWELL       PTSUNNY   73  52  47 VRB7      30.03F
ALLAIRE*       MOSUNNY   75  53  46 NW17      30.01F
TOMS RIVER*    PTSUNNY   72  54  53 NW9       30.01F

$$
PAZ043-044-047-054-055-060>062-066>071-221600-
EASTERN PENNSYLVANIA

CITY           SKY/WX    TMP DP  RH WIND       PRES   REMARKS
PHILADELPHIA   CLOUDY    73  58  59 NW9       30.05S
NORTH PHILA    PTSUNNY   74  59  59 NW9       30.06S
BLUE BELL*     CLOUDY    70  61  73 NW3       30.07S
DOYLESTOWN     CLOUDY    76  57  51 N9        30.04F
QUAKERTOWN*    CLOUDY    72  61  68 NW3       30.08F
PERKASIE*      FAIR      72  63  73 NW9       30.07F
POTTSTOWN      CLOUDY    72  61  68 N8        30.08F
LANCASTER      MOSUNNY   73  66  78 NW6       30.08F
COATESVILLE    PTSUNNY   73  63  68 CALM      30.09S
READING        PTSUNNY   75  65  70 N8        30.06F
ALLENTOWN      MOSUNNY   73  59  61 SW5       30.07F
MOUNT POCONO   SUNNY     71  47  42 N8        30.12S
HAZLETON         N/A     72  57  60 NW8       30.15F
LEHIGHTON      FAIR      73  59  60 CALM      30.08F
WILKES BARRE   MOSUNNY   70  59  68 NE3       30.12S

$$
DEZALL-MDZ008-012-015-019-020-221600-
DELAWARE AND EASTERN MARYLAND

CITY           SKY/WX    TMP DP  RH WIND       PRES   REMARKS
WILMINGTON     CLOUDY    75  62  64 NW9       30.06S
DOVER          PTSUNNY   73  59  60 N9        30.03S
GEORGETOWN     CLOUDY    75  60  59 N8        30.05S
EASTON         PTSUNNY   75  61  60 N6        30.09F
ABERDEEN       PTSUNNY   75  66  73 CALM      30.06F
PATUXENT       CLOUDY    77  64  64 N6        30.07R
OCEAN CITY     CLOUDY    73  64  73 N7        30.04S
WALLOPS ISLAND CLOUDY    73  64  73 NW6       30.04F
CAMBRIDGE      SUNNY     75  61  60 N7        30.06S
SALISBURY      CLOUDY    74  61  63 N8        30.04S

$$
PAZ001-021-NYZ056-072-MDZ011-DCZ001-221600-
OTHER NEARBY LOCATIONS

CITY           SKY/WX    TMP DP  RH WIND       PRES   REMARKS
HARRISBURG     MOSUNNY   76  64  66 N9        30.08S
STATE COLLEGE  SUNNY     72  64  78 CALM      30.14F
WILLIAMSPORT   SUNNY     76  63  64 W7        30.10F
BINGHAMTON     MOSUNNY   63  55  75 N6        30.16S
NEW YORK CITY  SUNNY     73  49  42 VRB6      30.04F
BALTIMORE      PTSUNNY   79  66  64 VRB6      30.06F
WASHINGTON DC  CLOUDY    80  65  59 VRB3      30.08F

$$




USA.gov is the U.S. government's official web portal to all federal, state and local government web resources and services.